T 2005 Apr. 17.3074 TT MPC q 1.530155 (2000.0) P Q n 0.1463292 Peri. 338.9237 -0.3245473 +0.7858930 a 3.566554 Node 268.8414 -0.7749511 -0.5399890 e 0.570971 Incl. 31.7662 -0.5423282 +0.3013040 P 6.74 >From 89 observations 2005 May 3-July 9.
m1 = 15.7 + 5 logΔ + 15.0 log r